#timestamp,LO_Frequency,Hit,StdDev 
1595768415.6,286047003.2,N
1595768435.4,286047007.4,N
1595768455.3,286047009.2,N
1595768475.1,286047006.4,N
1595768495.9,286047004.9,N
1595768515.7,286047003.3,N
1595768535.5,286047002.6,N
1595768555.4,286047000.8,N
1595768575.2,286046999.6,N
1595768595.0,286046997.3,N
1595768595.9,286046997.3,N
1595768615.8,286046995.4,N
1595768635.6,286046994.9,N
1595768655.5,286046995.0,N
1595768675.3,286046996.9,N
1595768695.1,286046995.1,N
1595768715.9,286046995.0,N
1595768735.7,286046997.1,N
1595768755.5,286047000.4,N
1595768775.4,286047003.3,N
1595768795.2,286047007.4,N
1595768815.1,286047007.4,N
1595768816.0,286047007.4,N
1595768835.8,286047006.4,N
1595768855.6,286047008.0,N
1595768875.5,286047009.9,N
1595768895.3,286047013.3,N
1595768915.1,286047015.3,N
1595768935.9,286047016.9,N
1595768955.7,286047020.4,Y
1595768975.6,286047015.1,P
1595768995.4,286047008.3,N
1595769015.2,286047004.5,N
1595769035.1,286047005.3,N
1595769036.0,286047005.3,N
1595769055.8,286047004.3,N
1595769075.6,286046999.7,N
1595769095.5,286047002.2,N
1595769115.3,286047003.8,N
1595769135.2,286047003.5,N
1595769155.9,286047007.0,N
1595769175.7,286047008.3,N
1595769195.6,286047008.8,N
1595769215.4,286047006.7,N
1595769235.2,286047008.2,N
1595769255.1,286047011.8,Y
1595769256.0,286047011.8,P
1595769275.8,286047004.8,N
1595769295.7,286047002.6,N
1595769315.5,286046998.0,N
1595769335.3,286046999.0,N
1595769355.2,286047001.8,N
1595769375.0,286047004.4,N
1595769375.9,286047004.4,N
1595769395.8,286047004.2,N
1595769415.6,286047002.7,N
1595769435.4,286047000.7,N
1595769455.3,286047003.4,N
1595769475.1,286047004.9,N
1595769476.0,286047004.9,N
1595769495.8,286047005.0,N
1595769515.7,286047006.8,N
1595769535.5,286047005.0,N
1595769555.3,286047004.7,N
1595769575.2,286047005.9,N
1595769595.0,286047003.7,N
1595769595.9,286047003.7,N
1595769615.8,286047005.3,N
1595769635.6,286047003.3,N
1595769655.4,286046999.9,N
1595769675.3,286046998.8,N
1595769695.1,286046997.7,N
1595769715.9,286046997.5,N
1595769735.7,286046996.6,N
1595769755.5,286046996.6,N
1595769775.4,286046999.5,N
1595769795.2,286046998.0,N
1595769815.0,286046996.7,N
1595769816.0,286046996.7,N
1595769835.8,286046994.2,N
1595769855.6,286046996.8,N
1595769875.5,286046996.5,N
1595769895.3,286046998.1,N
1595769915.1,286047000.1,N
1595769935.9,286047002.0,N
1595769955.7,286047000.3,N
1595769975.6,286047001.1,N
1595769995.4,286046998.7,N
1595770015.2,286046999.4,N
1595770035.1,286047000.9,N
1595770036.0,286047000.9,N
1595770055.8,286046995.7,N
1595770075.7,286046990.5,Y
1595770095.5,286046990.2,P
1595770115.3,286046990.0,N
1595770135.2,286046984.4,P
1595770155.0,286046980.0,Y
1595770155.9,286046980.0,P
1595770175.8,286046985.0,N
1595770195.6,286046984.9,P
1595770215.4,286046987.6,Y
1595770235.3,286047003.4,P
1595770255.1,286047001.6,N
1595770275.9,286047003.9,N
1595770295.7,286047005.1,N
1595770315.5,286047006.1,N
1595770335.4,286047004.7,N
1595770355.2,286047007.2,N
1595770375.0,286047006.9,N
1595770375.9,286047006.9,N
1595770395.8,286047007.6,N
1595770415.6,286047010.0,N
1595770435.5,286047008.5,N
1595770455.3,286047007.9,N
1595770475.1,286047009.1,N
1595770495.9,286047004.6,N
1595770515.7,286046998.3,N
1595770535.6,286046990.5,N
1595770555.4,286046987.6,N
1595770575.2,286046984.9,N
1595770595.1,286046979.0,N
1595770596.0,286046979.0,N
1595770615.8,286046979.4,N
1595770635.6,286046977.7,N
1595770655.5,286046979.2,N
1595770675.3,286046982.7,N
1595770695.1,286046988.9,N
1595770715.9,286046992.1,N
1595770735.7,286046994.3,N
1595770755.6,286046995.0,N
1595770775.4,286046997.5,N
1595770795.3,286046998.8,N
1595770815.1,286046999.2,N
1595770816.0,286046999.2,N
1595770835.8,286046998.4,N
1595770855.7,286046997.0,N
1595770875.5,286046999.6,N
1595770895.3,286046999.0,N
1595770915.2,286046996.6,N
1595770935.0,286046999.2,N
1595770935.9,286046999.2,N
1595770955.8,286046999.1,N
1595770975.6,286046994.7,N
1595770995.4,286046982.1,N
1595771015.3,286046980.3,N
1595771035.1,286046974.5,Y
1595771055.9,286046982.2,P
1595771075.7,286046987.1,N
1595771095.5,286046994.2,N
1595771115.4,286046999.1,N
1595771135.2,286046998.2,N
1595771155.0,286047002.0,N
1595771155.9,286047002.0,N
1595771175.8,286047001.8,N
1595771195.6,286047003.9,N
1595771215.4,286047000.7,N
1595771235.3,286046998.7,N
1595771255.1,286046997.1,N
1595771275.9,286046994.9,N
1595771295.7,286046997.3,N
1595771315.5,286047001.2,N
1595771335.4,286046999.1,N
1595771355.2,286046996.6,N
1595771375.0,286046995.3,N
1595771375.9,286046995.3,N
1595771395.8,286046993.9,N
1595771415.6,286046990.2,N
1595771435.5,286046992.1,N
1595771455.3,286046994.0,N
1595771475.1,286046995.0,N
1595771495.9,286046992.4,N
1595771515.7,286046990.5,N
1595771535.5,286046992.9,N
1595771555.4,286046995.7,N
1595771575.2,286046993.8,N
1595771595.1,286046995.8,N
1595771596.0,286046995.8,N
1595771615.8,286046994.7,N
1595771635.6,286046994.4,N
1595771655.5,286046997.6,N
1595771675.3,286046994.9,N
1595771695.1,286046997.7,N
1595771715.9,286046993.4,N
1595771735.7,286046995.3,N
1595771755.6,286046995.4,N
1595771775.4,286046993.7,N
1595771795.3,286046996.4,N
1595771815.1,286046994.2,N
1595771816.0,286046994.2,N
1595771835.8,286046993.8,N
1595771855.7,286046996.3,N
1595771875.5,286046996.4,N
1595771895.3,286046996.1,N
1595771915.2,286046993.5,Y
1595771935.0,286046997.7,P
1595771935.9,286046997.7,N
1595771955.8,286046999.4,N
1595771975.6,286046995.4,N
1595771995.4,286046997.0,N
